AMX452 MUHA-MMUN

Flight info

Callsign AMX452
Flight time 1h 18m
Altitude 34000
Route EPMAR4A MUPKI UB879 NOSAT NOSAT1B
Aircraft B38M/M-SDE1FGHILORVWXY/HB1

Departure

Time 2026-05-07 01:48
Airport José Martí International Airport (MUHA)

Arrival

Time 2026-05-07 03:07
Airport Cancún International Airport (MMUN)
Time Latitude Longitude Altitude Speed Heading
2026-05-07 01:11 22.99639 -82.40730 219 ft 0 kts 52°
2026-05-07 01:37 22.99631 -82.40742 220 ft 4 kts 53°
2026-05-07 01:37 22.99616 -82.40766 219 ft 4 kts 68°
2026-05-07 01:37 22.99614 -82.40789 219 ft 4 kts 132°
2026-05-07 01:38 22.99619 -82.40793 219 ft 2 kts 146°
2026-05-07 01:41 22.99612 -82.40788 219 ft 3 kts 146°
2026-05-07 01:42 22.99590 -82.40772 223 ft 5 kts 146°
2026-05-07 01:42 22.99554 -82.40745 219 ft 7 kts 146°
2026-05-07 01:42 22.99504 -82.40708 219 ft 10 kts 146°
2026-05-07 01:42 22.99446 -82.40728 227 ft 11 kts 236°
2026-05-07 01:43 22.99399 -82.40799 219 ft 13 kts 234°
2026-05-07 01:43 22.99325 -82.40831 223 ft 14 kts 150°
2026-05-07 01:43 22.99238 -82.40774 218 ft 15 kts 172°
2026-05-07 01:43 22.99163 -82.40852 224 ft 16 kts 234°
2026-05-07 01:44 22.99094 -82.40958 224 ft 18 kts 234°
2026-05-07 01:44 22.99017 -82.41075 221 ft 20 kts 234°
2026-05-07 01:44 22.98931 -82.41203 223 ft 22 kts 233°
2026-05-07 01:44 22.98839 -82.41342 219 ft 23 kts 235°
2026-05-07 01:45 22.98740 -82.41492 219 ft 25 kts 233°
2026-05-07 01:45 22.98633 -82.41652 218 ft 27 kts 234°
2026-05-07 01:45 22.98518 -82.41822 226 ft 28 kts 234°
2026-05-07 01:45 22.98418 -82.41975 218 ft 22 kts 234°
2026-05-07 01:46 22.98335 -82.42102 221 ft 19 kts 234°
2026-05-07 01:46 22.98256 -82.42219 222 ft 20 kts 234°
2026-05-07 01:46 22.98173 -82.42345 225 ft 22 kts 234°
2026-05-07 01:46 22.98083 -82.42480 226 ft 21 kts 234°
2026-05-07 01:47 22.98024 -82.42558 219 ft 12 kts 213°
2026-05-07 01:47 22.97946 -82.42542 219 ft 13 kts 141°
2026-05-07 01:47 22.97885 -82.42488 222 ft 8 kts 126°
2026-05-07 01:47 22.97903 -82.42431 221 ft 14 kts 56°
2026-05-07 01:48 22.98102 -82.42131 226 ft 93 kts 54°
2026-05-07 01:48 22.98630 -82.41324 286 ft 158 kts 57°
2026-05-07 01:48 22.99284 -82.40321 1184 ft 168 kts 56°
2026-05-07 01:48 23.00007 -82.39268 2122 ft 179 kts 54°
2026-05-07 01:49 23.00765 -82.38121 2838 ft 197 kts 56°
2026-05-07 01:49 23.01615 -82.36823 3433 ft 222 kts 56°
2026-05-07 01:49 23.02547 -82.35395 4138 ft 243 kts 56°
2026-05-07 01:49 23.03572 -82.33848 4871 ft 262 kts 56°
2026-05-07 01:50 23.04676 -82.32186 5649 ft 278 kts 56°
2026-05-07 01:50 23.05809 -82.30484 6749 ft 278 kts 56°
2026-05-07 01:50 23.06948 -82.28767 7768 ft 280 kts 55°
2026-05-07 01:50 23.08089 -82.27049 8841 ft 281 kts 55°
2026-05-07 01:51 23.09237 -82.25318 9841 ft 285 kts 54°
2026-05-07 01:51 23.10409 -82.23551 10606 ft 295 kts 54°
2026-05-07 01:51 23.11645 -82.21687 11101 ft 312 kts 54°
2026-05-07 01:51 23.13133 -82.19908 11684 ft 324 kts 37°
2026-05-07 01:52 23.15166 -82.18860 12585 ft 328 kts 16°
2026-05-07 01:52 23.17459 -82.18689 13403 ft 337 kts 355°
2026-05-07 01:52 23.19733 -82.19396 14169 ft 344 kts 343°
2026-05-07 01:52 23.21991 -82.20286 14840 ft 347 kts 343°
2026-05-07 01:53 23.24172 -82.21450 15529 ft 354 kts 326°
2026-05-07 01:53 23.25932 -82.23337 16227 ft 360 kts 308°
2026-05-07 01:53 23.27094 -82.25767 16914 ft 367 kts 290°
2026-05-07 01:53 23.27512 -82.28510 17582 ft 372 kts 271°
2026-05-07 01:54 23.27139 -82.31320 17840 ft 377 kts 258°
2026-05-07 01:54 23.26528 -82.34094 17981 ft 377 kts 258°
2026-05-07 01:54 23.25912 -82.36833 18055 ft 378 kts 258°
2026-05-07 01:54 23.25277 -82.39603 18064 ft 378 kts 257°
2026-05-07 01:55 23.24636 -82.42371 18067 ft 378 kts 257°
2026-05-07 01:55 23.23992 -82.45137 18064 ft 377 kts 257°
2026-05-07 01:55 23.23347 -82.47905 18063 ft 377 kts 257°
2026-05-07 01:55 23.22703 -82.50666 18067 ft 377 kts 257°
2026-05-07 01:56 23.22056 -82.53434 18067 ft 377 kts 257°
2026-05-07 01:56 23.21410 -82.56198 18066 ft 377 kts 257°
2026-05-07 01:56 23.20760 -82.58976 18315 ft 380 kts 257°
2026-05-07 01:56 23.20108 -82.61755 18943 ft 380 kts 257°
2026-05-07 01:57 23.19454 -82.64546 19460 ft 383 kts 257°
2026-05-07 01:57 23.18794 -82.67357 19991 ft 385 kts 257°
2026-05-07 01:57 23.18130 -82.70187 20515 ft 388 kts 257°
2026-05-07 01:57 23.17460 -82.73035 21029 ft 390 kts 257°
2026-05-07 01:58 23.16786 -82.75902 21543 ft 393 kts 257°
2026-05-07 01:58 23.16106 -82.78789 22045 ft 396 kts 257°
2026-05-07 01:58 23.15422 -82.81690 22542 ft 398 kts 257°
2026-05-07 01:58 23.14732 -82.84616 23040 ft 400 kts 257°
2026-05-07 01:59 23.14039 -82.87553 23560 ft 402 kts 256°
2026-05-07 01:59 23.13342 -82.90504 23965 ft 405 kts 257°
2026-05-07 01:59 23.12649 -82.93433 24392 ft 406 kts 257°
2026-05-07 01:59 23.11946 -82.96408 24820 ft 407 kts 257°
2026-05-07 02:00 23.11239 -82.99389 25266 ft 408 kts 257°
2026-05-07 02:00 23.10530 -83.02381 25663 ft 410 kts 257°
2026-05-07 02:00 23.09816 -83.05387 26077 ft 412 kts 257°
2026-05-07 02:00 23.09099 -83.08405 26500 ft 414 kts 257°
2026-05-07 02:01 23.08377 -83.11440 26896 ft 416 kts 257°
2026-05-07 02:01 23.07653 -83.14484 27293 ft 418 kts 257°
2026-05-07 02:01 23.06923 -83.17546 27676 ft 420 kts 257°
2026-05-07 02:01 23.06189 -83.20626 28063 ft 422 kts 257°
2026-05-07 02:02 23.05452 -83.23716 28449 ft 424 kts 257°
2026-05-07 02:02 23.04710 -83.26818 28833 ft 425 kts 257°
2026-05-07 02:02 23.03966 -83.29933 29208 ft 427 kts 257°
2026-05-07 02:02 23.03216 -83.33064 29571 ft 429 kts 257°
2026-05-07 02:03 23.02463 -83.36209 29927 ft 431 kts 257°
2026-05-07 02:03 23.01708 -83.39358 30262 ft 433 kts 257°
2026-05-07 02:03 23.00946 -83.42534 30554 ft 435 kts 257°
2026-05-07 02:03 23.00182 -83.45714 30850 ft 437 kts 257°
2026-05-07 02:04 22.99412 -83.48915 31138 ft 439 kts 257°
2026-05-07 02:04 22.98639 -83.52124 31429 ft 441 kts 257°
2026-05-07 02:04 22.97862 -83.55349 31717 ft 443 kts 257°
2026-05-07 02:04 22.97082 -83.58586 31993 ft 444 kts 257°
2026-05-07 02:05 22.96307 -83.61796 32275 ft 446 kts 257°
2026-05-07 02:05 22.95508 -83.65101 32551 ft 448 kts 257°
2026-05-07 02:05 22.94727 -83.68334 32827 ft 450 kts 257°
2026-05-07 02:05 22.94190 -83.70552 33066 ft 450 kts 257°
2026-05-07 02:06 22.93396 -83.73831 33441 ft 449 kts 257°
2026-05-07 02:06 22.92603 -83.77101 33834 ft 448 kts 257°
2026-05-07 02:06 22.91809 -83.80373 34045 ft 449 kts 257°
2026-05-07 02:07 22.90227 -83.86882 34046 ft 445 kts 257°
2026-05-07 02:07 22.87857 -83.96609 34043 ft 445 kts 257°
2026-05-07 02:08 22.86274 -84.03094 34042 ft 445 kts 257°
2026-05-07 02:08 22.84688 -84.09575 34044 ft 445 kts 257°
2026-05-07 02:09 22.83100 -84.16054 34039 ft 445 kts 257°
2026-05-07 02:09 22.81508 -84.22536 34039 ft 445 kts 257°
2026-05-07 02:10 22.79914 -84.29016 34042 ft 445 kts 257°
2026-05-07 02:10 22.78317 -84.35493 34040 ft 445 kts 257°
2026-05-07 02:11 22.76718 -84.41968 34045 ft 445 kts 256°
2026-05-07 02:11 22.75115 -84.48445 34042 ft 445 kts 256°
2026-05-07 02:12 22.73509 -84.54923 34043 ft 445 kts 256°
2026-05-07 02:12 22.71900 -84.61404 34038 ft 446 kts 256°
2026-05-07 02:13 22.70289 -84.67878 34044 ft 446 kts 256°
2026-05-07 02:13 22.68673 -84.74361 34035 ft 446 kts 256°
2026-05-07 02:14 22.67053 -84.80847 34036 ft 446 kts 256°
2026-05-07 02:14 22.65445 -84.87282 34038 ft 446 kts 256°
2026-05-07 02:15 22.63822 -84.93761 34032 ft 446 kts 256°
2026-05-07 02:15 22.62194 -85.00245 34034 ft 447 kts 256°
2026-05-07 02:16 22.60178 -85.06585 34027 ft 448 kts 239°
2026-05-07 02:16 22.56535 -85.12087 34036 ft 451 kts 235°
2026-05-07 02:17 22.52866 -85.17434 34045 ft 436 kts 235°
2026-05-07 02:17 22.49244 -85.22640 34033 ft 432 kts 234°
2026-05-07 02:18 22.45625 -85.27829 34037 ft 432 kts 234°
2026-05-07 02:18 22.42030 -85.32977 34033 ft 432 kts 234°
2026-05-07 02:19 22.38408 -85.38157 34030 ft 432 kts 234°
2026-05-07 02:19 22.34789 -85.43331 34032 ft 432 kts 234°
2026-05-07 02:20 22.31166 -85.48505 34032 ft 432 kts 234°
2026-05-07 02:20 22.27544 -85.53672 34032 ft 432 kts 234°
2026-05-07 02:21 22.23922 -85.58839 34023 ft 431 kts 234°
2026-05-07 02:21 22.20310 -85.64002 34031 ft 431 kts 234°
2026-05-07 02:22 22.16693 -85.69167 34024 ft 431 kts 234°
2026-05-07 02:22 22.13074 -85.74330 34025 ft 431 kts 234°
2026-05-07 02:23 22.09455 -85.79488 34028 ft 431 kts 234°
2026-05-07 02:23 22.05859 -85.84606 34017 ft 431 kts 234°
2026-05-07 02:24 22.02240 -85.89758 34026 ft 431 kts 234°
2026-05-07 02:24 21.98616 -85.94909 34013 ft 431 kts 234°
2026-05-07 02:25 21.95024 -86.00075 34036 ft 431 kts 234°
2026-05-07 02:25 21.91453 -86.05257 34073 ft 430 kts 235°
2026-05-07 02:26 21.87881 -86.10441 34013 ft 430 kts 234°
2026-05-07 02:26 21.84322 -86.15631 34016 ft 431 kts 235°
2026-05-07 02:27 21.80751 -86.20817 34039 ft 431 kts 235°
2026-05-07 02:27 21.77188 -86.26001 34023 ft 431 kts 234°
2026-05-07 02:28 21.73653 -86.31165 34024 ft 431 kts 235°
2026-05-07 02:28 21.70096 -86.36354 34038 ft 431 kts 235°
2026-05-07 02:29 21.66547 -86.41554 34024 ft 431 kts 235°
2026-05-07 02:29 21.63010 -86.46754 34057 ft 431 kts 235°
2026-05-07 02:30 21.59477 -86.51962 34029 ft 431 kts 235°
2026-05-07 02:30 21.55956 -86.57175 34019 ft 431 kts 235°
2026-05-07 02:31 21.52432 -86.62388 33986 ft 431 kts 235°
2026-05-07 02:31 21.48908 -86.67596 34031 ft 432 kts 235°
2026-05-07 02:32 21.45383 -86.72827 34035 ft 432 kts 236°
2026-05-07 02:32 21.41899 -86.78034 34034 ft 432 kts 235°
2026-05-07 02:33 21.38385 -86.83274 34027 ft 433 kts 235°
2026-05-07 02:33 21.34877 -86.88536 34024 ft 433 kts 235°
2026-05-07 02:34 21.31372 -86.93801 34027 ft 434 kts 235°
2026-05-07 02:34 21.27869 -86.99081 34028 ft 435 kts 235°
2026-05-07 02:35 21.24367 -87.04378 34022 ft 435 kts 235°
2026-05-07 02:35 21.20870 -87.09680 34027 ft 436 kts 235°
2026-05-07 02:36 21.17374 -87.14988 34022 ft 436 kts 235°
2026-05-07 02:36 21.13885 -87.20299 34027 ft 436 kts 236°
2026-05-07 02:37 21.10425 -87.25581 34012 ft 436 kts 236°
2026-05-07 02:37 21.06948 -87.30900 34012 ft 436 kts 236°
2026-05-07 02:38 21.03482 -87.36220 34006 ft 436 kts 236°
2026-05-07 02:38 21.00018 -87.41545 34011 ft 436 kts 236°
2026-05-07 02:39 20.96560 -87.46874 34008 ft 436 kts 236°
2026-05-07 02:39 20.93111 -87.52202 34010 ft 436 kts 236°
2026-05-07 02:40 20.89668 -87.57533 34014 ft 436 kts 236°
2026-05-07 02:40 20.85815 -87.62510 33975 ft 434 kts 239°
2026-05-07 02:41 20.84616 -87.65445 33992 ft 431 kts 256°
2026-05-07 02:41 20.84287 -87.68620 34004 ft 432 kts 273°
2026-05-07 02:41 20.84839 -87.71728 33995 ft 434 kts 290°
2026-05-07 02:41 20.86241 -87.74578 33983 ft 435 kts 306°
2026-05-07 02:42 20.90122 -87.79578 33982 ft 438 kts 308°
2026-05-07 02:42 20.93948 -87.84650 33990 ft 438 kts 308°
2026-05-07 02:43 20.97768 -87.89728 33984 ft 438 kts 308°
2026-05-07 02:43 21.01589 -87.94813 33987 ft 438 kts 308°
2026-05-07 02:44 21.05405 -87.99899 33959 ft 437 kts 307°
2026-05-07 02:44 21.07300 -88.02424 33236 ft 437 kts 307°
2026-05-07 02:44 21.09224 -88.04981 32312 ft 444 kts 308°
2026-05-07 02:45 21.11176 -88.07581 31389 ft 451 kts 307°
2026-05-07 02:45 21.13150 -88.10228 30470 ft 458 kts 307°
2026-05-07 02:45 21.15156 -88.12908 29513 ft 464 kts 308°
2026-05-07 02:45 21.17184 -88.15618 28509 ft 468 kts 307°
2026-05-07 02:46 21.19230 -88.18353 27546 ft 472 kts 308°
2026-05-07 02:46 21.21416 -88.21000 26487 ft 479 kts 317°
2026-05-07 02:46 21.24181 -88.23029 25404 ft 486 kts 334°
2026-05-07 02:46 21.27384 -88.24213 24367 ft 491 kts 349°
2026-05-07 02:47 21.30797 -88.24392 23304 ft 495 kts
2026-05-07 02:47 21.34048 -88.23329 22622 ft 484 kts 29°
2026-05-07 02:47 21.36651 -88.21157 22133 ft 469 kts 51°
2026-05-07 02:47 21.38266 -88.18214 21781 ft 451 kts 73°
2026-05-07 02:48 21.38700 -88.14969 21488 ft 435 kts 95°
2026-05-07 02:48 21.37951 -88.11903 21168 ft 421 kts 118°
2026-05-07 02:48 21.36178 -88.09477 20857 ft 410 kts 137°
2026-05-07 02:48 21.34162 -88.07358 20521 ft 402 kts 133°
2026-05-07 02:49 21.32264 -88.05183 20163 ft 396 kts 131°
2026-05-07 02:49 21.30592 -88.02876 19876 ft 388 kts 126°
2026-05-07 02:49 21.29119 -88.00494 19621 ft 380 kts 116°
2026-05-07 02:49 21.28113 -87.97911 19383 ft 372 kts 110°
2026-05-07 02:50 21.27289 -87.95316 19198 ft 363 kts 107°
2026-05-07 02:50 21.26581 -87.92755 19042 ft 354 kts 105°
2026-05-07 02:50 21.25950 -87.90242 18900 ft 345 kts 104°
2026-05-07 02:50 21.25365 -87.87773 18649 ft 340 kts 104°
2026-05-07 02:51 21.24801 -87.85322 18306 ft 338 kts 103°
2026-05-07 02:51 21.24249 -87.82876 17917 ft 336 kts 103°
2026-05-07 02:51 21.23708 -87.80447 17544 ft 334 kts 103°
2026-05-07 02:51 21.23173 -87.78039 17289 ft 329 kts 103°
2026-05-07 02:52 21.22653 -87.75689 17139 ft 319 kts 103°
2026-05-07 02:52 21.22150 -87.73406 16997 ft 311 kts 102°
2026-05-07 02:52 21.21964 -87.71129 16709 ft 306 kts 88°
2026-05-07 02:52 21.22005 -87.68884 16360 ft 305 kts 89°
2026-05-07 02:53 21.22035 -87.66623 16052 ft 303 kts 89°
2026-05-07 02:53 21.22064 -87.64372 15724 ft 301 kts 89°
2026-05-07 02:53 21.22092 -87.62135 15412 ft 299 kts 89°
2026-05-07 02:53 21.22119 -87.59913 15102 ft 298 kts 89°
2026-05-07 02:54 21.22147 -87.57703 14804 ft 296 kts 89°
2026-05-07 02:54 21.22173 -87.55506 14496 ft 294 kts 89°
2026-05-07 02:54 21.22199 -87.53321 14201 ft 292 kts 89°
2026-05-07 02:54 21.22224 -87.51152 13901 ft 291 kts 89°
2026-05-07 02:55 21.22249 -87.48991 13578 ft 289 kts 89°
2026-05-07 02:55 21.22274 -87.46846 13303 ft 286 kts 89°
2026-05-07 02:55 21.22297 -87.44750 13169 ft 277 kts 89°
2026-05-07 02:55 21.22320 -87.42730 12924 ft 266 kts 89°
2026-05-07 02:56 21.22341 -87.40783 12632 ft 256 kts 89°
2026-05-07 02:56 21.22362 -87.38907 12339 ft 248 kts 89°
2026-05-07 02:56 21.22382 -87.37074 11934 ft 245 kts 89°
2026-05-07 02:56 21.22402 -87.35262 11513 ft 243 kts 89°
2026-05-07 02:57 21.22326 -87.33463 11085 ft 241 kts 94°
2026-05-07 02:57 21.22210 -87.31679 10674 ft 240 kts 94°
2026-05-07 02:57 21.22100 -87.29903 10208 ft 240 kts 94°
2026-05-07 02:57 21.21975 -87.28071 9491 ft 251 kts 95°
2026-05-07 02:58 21.21847 -87.26211 9071 ft 248 kts 95°
2026-05-07 02:58 21.21753 -87.24381 8652 ft 245 kts 93°
2026-05-07 02:58 21.21696 -87.22558 8111 ft 246 kts 93°
2026-05-07 02:58 21.21660 -87.21365 7980 ft 233 kts 92°
2026-05-07 02:59 21.21638 -87.19658 7375 ft 234 kts 92°
2026-05-07 02:59 21.21617 -87.17311 6597 ft 234 kts 93°
2026-05-07 02:59 21.21335 -87.15587 5790 ft 240 kts 110°
2026-05-07 02:59 21.20633 -87.13993 5468 ft 222 kts 121°
2026-05-07 03:00 21.20046 -87.13097 5138 ft 219 kts 130°
2026-05-07 03:00 21.18661 -87.11462 4224 ft 226 kts 131°
2026-05-07 03:00 21.18014 -87.10612 3921 ft 218 kts 127°
2026-05-07 03:00 21.17209 -87.09292 3239 ft 210 kts 122°
2026-05-07 03:01 21.16468 -87.07889 2382 ft 212 kts 122°
2026-05-07 03:01 21.15664 -87.06614 1817 ft 201 kts 126°
2026-05-07 03:01 21.14885 -87.05433 1197 ft 195 kts 124°
2026-05-07 03:01 21.14141 -87.04308 968 ft 173 kts 125°
2026-05-07 03:02 21.13509 -87.03357 1012 ft 144 kts 128°
2026-05-07 03:02 21.12929 -87.02515 1254 ft 139 kts 125°
2026-05-07 03:02 21.12388 -87.01664 1344 ft 138 kts 124°
2026-05-07 03:02 21.11857 -87.00816 1340 ft 137 kts 124°
2026-05-07 03:03 21.11328 -86.99970 1326 ft 137 kts 124°
2026-05-07 03:03 21.10800 -86.99127 1315 ft 136 kts 124°
2026-05-07 03:03 21.10274 -86.98284 1314 ft 136 kts 124°
2026-05-07 03:03 21.09747 -86.97439 1317 ft 136 kts 124°
2026-05-07 03:04 21.09220 -86.96598 1303 ft 136 kts 124°
2026-05-07 03:04 21.08689 -86.95757 1308 ft 136 kts 124°
2026-05-07 03:04 21.08157 -86.94915 1248 ft 137 kts 123°
2026-05-07 03:04 21.07631 -86.94069 1093 ft 136 kts 124°
2026-05-07 03:05 21.07104 -86.93225 942 ft 136 kts 123°
2026-05-07 03:05 21.06581 -86.92375 767 ft 137 kts 125°
2026-05-07 03:05 21.06043 -86.91517 604 ft 139 kts 124°
2026-05-07 03:05 21.05530 -86.90656 397 ft 136 kts 121°
2026-05-07 03:06 21.05025 -86.89793 298 ft 139 kts 130°
2026-05-07 03:06 21.04444 -86.88974 71 ft 134 kts 124°
2026-05-07 03:06 21.03969 -86.88200 36 ft 108 kts 123°
2026-05-07 03:06 21.03650 -86.87686 37 ft 54 kts 123°
2026-05-07 03:07 21.03518 -86.87474 38 ft 24 kts 123°
2026-05-07 03:07 21.03500 -86.87366 37 ft 13 kts 31°
2026-05-07 03:07 21.03573 -86.87382 36 ft 12 kts
2026-05-07 03:07 21.03651 -86.87332 33 ft 7 kts 33°
2026-05-07 03:08 21.03707 -86.87332 32 ft 10 kts 316°
2026-05-07 03:08 21.03750 -86.87401 32 ft 12 kts 304°
2026-05-07 03:08 21.03804 -86.87485 32 ft 15 kts 303°
2026-05-07 03:08 21.03828 -86.87568 32 ft 13 kts 255°
2026-05-07 03:09 21.03829 -86.87663 33 ft 14 kts 301°
2026-05-07 03:09 21.03887 -86.87755 33 ft 16 kts 304°
2026-05-07 03:09 21.03954 -86.87863 33 ft 19 kts 303°
2026-05-07 03:09 21.04032 -86.87986 33 ft 21 kts 304°
2026-05-07 03:10 21.04119 -86.88125 32 ft 22 kts 304°
2026-05-07 03:10 21.04162 -86.88192 33 ft 10 kts 317°
2026-05-07 03:10 21.04232 -86.88173 32 ft 13 kts 32°
2026-05-07 03:10 21.04308 -86.88117 32 ft 9 kts 34°
2026-05-07 03:11 21.04366 -86.88075 31 ft 11 kts 34°
2026-05-07 03:11 21.04409 -86.88040 31 ft 2 kts 71°
2026-05-07 03:11 21.04404 -86.88027 31 ft 2 kts 127°
2026-05-07 03:11 21.04388 -86.88003 31 ft 5 kts 124°
2026-05-07 03:12 21.04371 -86.87977 31 ft 3 kts 124°
2026-05-07 03:12 21.04368 -86.87973 31 ft 0 kts 124°